Change the Weather History Date:

Monday, October 3, 2011

  Actual Average Record
Temperature  
Mean Temperature 48 °F 57 °F  
Max Temperature 54 °F 69 °F 83 °F (2013)
Min Temperature 42 °F 45 °F 28 °F (1974)
Degree Days  
Heating Degree Days 18 9  
Month to date heating degree days 25  
Since 1 July heating degree days 131  
Cooling Degree Days 0 1  
Month to date cooling degree days 3  
Year to date cooling degree days 691  
Moisture  
Dew Point 47 °F    
Average Humidity 90    
Maximum Humidity 94    
Minimum Humidity 87    
Precipitation  
Precipitation 0.28 in 0.10 in 0.86 in (1969)
Month to date precipitation 0.30  
Year to date precipitation 30.51  
Sea Level Pressure  
Sea Level Pressure 30.09 in    
Wind  
Wind Speed 4 mph (NW)    
Max Wind Speed 8 mph    
Max Gust Speed -    
Visibility 6 miles    
Events Rain    
T = Trace of Precipitation, MM = Missing Value Source: NWS Daily Summary

Daily Weather History Graph

Daily Weather History Graph

Search for Another Location

Airport or City:

Trip Planner

Search our weather history database for the weather conditions in past years. The results will help you decide how hot, cold, wet, or windy it might be!

Date:

Astronomy

Oct. 03, 2011 Rise Set
Actual Time 7:23 AM EDT 7:05 PM EDT
Civil Twilight 6:56 AM EDT 7:32 PM EDT
Nautical Twilight 6:25 AM EDT 8:03 PM EDT
Astronomical Twilight 5:53 AM EDT 8:35 PM EDT
Moon 2:21 PM EDT (10/3) No Moon Set
Length of Visible Light 12h 35m
Length of Day
11h 41m
Waxing Crescent, 45% of the Moon is Illuminated
Oct 3
Waxing Crescent
Oct 3
First Quarter
Oct 11
Full
Oct 19
Last Quarter
Oct 26
New

Hourly Weather History & Observations

Time (EDT) Temp. Windchill Dew Point Humidity Pressure Visibility Wind Dir Wind Speed Gust Speed Precip Events Conditions
12:53 AM 43.0 °F 41.3 °F 39.9 °F 89% 30.03 in 10.0 mi NNW 3.5 mph - N/A   Mostly Cloudy
1:01 AM 42.8 °F 40.1 °F 39.2 °F 87% 30.03 in 10.0 mi North 4.6 mph - N/A   Mostly Cloudy
1:44 AM 44.6 °F 42.2 °F 42.8 °F 93% 30.03 in 10.0 mi NNW 4.6 mph - N/A   Overcast
1:53 AM 45.0 °F 41.8 °F 42.1 °F 90% 30.04 in 10.0 mi North 5.8 mph - N/A   Overcast
3:20 AM 44.6 °F 43.1 °F 42.8 °F 93% 30.02 in 10.0 mi NNW 3.5 mph - N/A   Overcast
3:53 AM 46.0 °F 44.8 °F 43.0 °F 89% 30.03 in 10.0 mi Variable 3.5 mph - N/A   Overcast
4:31 AM 46.4 °F 45.2 °F 42.8 °F 87% 30.03 in 10.0 mi NNW 3.5 mph - N/A   Overcast
4:53 AM 46.0 °F 44.8 °F 43.0 °F 89% 30.04 in 10.0 mi WNW 3.5 mph - N/A   Overcast
5:36 AM 46.4 °F 45.2 °F 42.8 °F 87% 30.04 in 10.0 mi WNW 3.5 mph - N/A   Overcast
5:53 AM 46.0 °F - 43.0 °F 89% 30.04 in 10.0 mi Calm Calm - N/A   Mostly Cloudy
6:53 AM 46.0 °F 44.8 °F 43.0 °F 89% 30.06 in 9.0 mi NW 3.5 mph - 0.01 in Rain Light Rain
7:23 AM 46.4 °F - 42.8 °F 87% 30.05 in 4.0 mi Calm Calm - 0.05 in Rain Rain
7:31 AM 46.4 °F - 42.8 °F 87% 30.05 in 3.0 mi Calm Calm - 0.08 in Rain Rain
7:53 AM 46.0 °F 44.8 °F 43.0 °F 89% 30.05 in 9.0 mi NW 3.5 mph - 0.10 in Rain Light Rain
8:19 AM 46.4 °F 42.9 °F 42.8 °F 87% 30.05 in 10.0 mi Variable 6.9 mph - 0.01 in Rain Light Rain
8:29 AM 46.4 °F 42.9 °F 42.8 °F 87% 30.05 in 10.0 mi NNW 6.9 mph - 0.02 in Rain Light Rain
8:45 AM 46.4 °F 43.5 °F 42.8 °F 87% 30.05 in 6.0 mi NW 5.8 mph - 0.02 in Rain Light Rain
8:53 AM 46.0 °F 43.1 °F 43.0 °F 89% 30.07 in 6.0 mi NW 5.8 mph - 0.02 in Rain Light Rain
9:38 AM 46.4 °F 42.4 °F 44.6 °F 93% 30.07 in 2.5 mi NW 8.1 mph - 0.01 in   Overcast
9:53 AM 46.9 °F - 44.1 °F 90% 30.09 in 3.0 mi NW 4.6 mph - 0.01 in   Overcast
10:18 AM 48.2 °F - 44.6 °F 87% 30.07 in 8.0 mi NW 6.9 mph - N/A   Overcast
10:53 AM 48.0 °F - 45.0 °F 89% 30.08 in 6.0 mi Variable 4.6 mph - N/A   Overcast
11:40 AM 48.2 °F - 46.4 °F 93% 30.07 in 1.8 mi NW 5.8 mph - N/A   Overcast
11:53 AM 48.9 °F - 46.9 °F 93% 30.08 in 1.8 mi NNW 3.5 mph - N/A   Overcast
12:09 PM 50.0 °F - 46.4 °F 87% 30.06 in 1.8 mi Calm Calm - 0.00 in Rain Light Rain
12:38 PM 50.0 °F - 48.2 °F 94% 30.07 in 2.5 mi Variable 3.5 mph - 0.01 in   Overcast
12:53 PM 50.0 °F - 48.0 °F 93% 30.09 in 3.0 mi NW 3.5 mph - 0.01 in   Overcast
1:01 PM 51.8 °F - 48.2 °F 88% 30.07 in 2.0 mi NW 5.8 mph - N/A   Overcast
1:37 PM 51.8 °F - 48.2 °F 88% 30.07 in 4.0 mi NW 3.5 mph - N/A   Overcast
2:22 PM 51.8 °F - 48.2 °F 88% 30.07 in 1.8 mi NW 4.6 mph - N/A   Overcast
2:32 PM 51.8 °F - 48.2 °F 88% 30.07 in 2.0 mi Calm Calm - N/A   Overcast
2:53 PM 52.0 °F - 50.0 °F 93% 30.08 in 2.5 mi Calm Calm - N/A   Overcast
3:04 PM 51.8 °F - 50.0 °F 94% 30.07 in 1.8 mi WNW 4.6 mph - 0.01 in Rain Light Rain
3:45 PM 53.6 °F - 50.0 °F 88% 30.07 in 1.8 mi NW 5.8 mph - 0.02 in Rain Light Rain
3:53 PM 53.1 °F - 50.0 °F 89% 30.08 in 2.0 mi NW 6.9 mph - 0.02 in Rain Light Rain
4:08 PM 53.6 °F - 50.0 °F 88% 30.07 in 1.8 mi NW 4.6 mph - 0.01 in Rain Light Rain
4:53 PM 53.1 °F - 51.1 °F 93% 30.09 in 2.0 mi NW 4.6 mph - 0.03 in Rain Light Rain
5:05 PM 53.6 °F - 51.8 °F 94% 30.08 in 1.8 mi NW 4.6 mph - 0.00 in Rain Light Rain
5:17 PM 53.6 °F - 51.8 °F 94% 30.08 in 2.0 mi NW 3.5 mph - 0.01 in   Overcast
5:27 PM 53.6 °F - 51.8 °F 94% 30.09 in 1.5 mi NNW 4.6 mph - 0.01 in Rain Light Rain
5:53 PM 53.1 °F - 51.1 °F 93% 30.10 in 2.0 mi NNW 3.5 mph - 0.02 in Rain Light Rain
6:13 PM 53.6 °F - 51.8 °F 94% 30.10 in 1.2 mi NNW 4.6 mph - 0.02 in Rain Light Rain
6:25 PM 53.6 °F - 51.8 °F 94% 30.11 in 3.0 mi North 6.9 mph - 0.02 in Rain Light Rain
6:38 PM 53.6 °F - 51.8 °F 94% 30.11 in 2.0 mi NNW 3.5 mph - 0.04 in Rain Light Rain
6:53 PM 53.1 °F - 51.1 °F 93% 30.12 in 9.0 mi NNW 4.6 mph - 0.04 in   Overcast
7:53 PM 53.1 °F - 51.1 °F 93% 30.14 in 5.0 mi NW 4.6 mph - 0.02 in Rain Light Rain
9:01 PM 53.6 °F - 51.8 °F 94% 30.15 in 7.0 mi NNW 3.5 mph - N/A   Overcast
9:53 PM 53.1 °F - 51.1 °F 93% 30.17 in 8.0 mi Calm Calm - N/A   Overcast
10:02 PM 53.6 °F - 51.8 °F 94% 30.16 in 8.0 mi Calm Calm - N/A   Overcast
10:37 PM 53.6 °F - 51.8 °F 94% 30.17 in 10.0 mi NW 4.6 mph - N/A   Overcast
10:51 PM 53.6 °F - 50.0 °F 88% 30.16 in 10.0 mi NW 3.5 mph - N/A   Mostly Cloudy
10:53 PM 52.0 °F - 50.0 °F 93% 30.17 in 10.0 mi NNW 3.5 mph - N/A   Mostly Cloudy
11:04 PM 51.8 °F - 48.2 °F 88% 30.16 in 10.0 mi Calm Calm - N/A   Mostly Cloudy
11:15 PM 51.8 °F - 48.2 °F 88% 30.16 in 6.0 mi Calm Calm - N/A   Mostly Cloudy
11:19 PM 51.8 °F - 48.2 °F 88% 30.16 in 1.8 mi Calm Calm - N/A   Mostly Cloudy
11:36 PM 51.8 °F - 48.2 °F 88% 30.17 in 2.5 mi Calm Calm - N/A   Overcast
11:53 PM 51.1 °F - 48.9 °F 92% 30.18 in 4.0 mi Calm Calm - N/A   Overcast